Location: Unspecified
(0.0000°N, 0.0000°E)
Time: 06:54:59
(UTC+00:00)

Vanguard 3 - All Passes

Search period start: 30 June 2016 00:00
Search period end: 10 July 2016 00:00
Orbit: 510 x 3266 km, 33.3° (Epoch: 29 June)

Date Brightness Start Highest point End Pass type
(mag) Time Alt. Az. Time Alt. Az. Time Alt. Az.
30 Jun - 01:24:49 10° SW 01:45:02 82° NW 01:59:08 10° NE visible
30 Jun - 03:46:25 10° W 04:00:18 30° NW 04:09:43 10° NNE visible
30 Jun - 12:56:08 10° NW 12:59:56 62° NE 13:05:18 10° ESE daylight
30 Jun - 15:08:34 10° WSW 15:12:39 21° SSW 15:18:27 10° SSE daylight
30 Jun - 19:42:16 10° SSW 19:49:17 14° SSE 19:57:27 10° SE visible
30 Jun - 21:54:19 10° SSW 22:09:51 33° SSE 22:26:17 10° E visible
01 Jul - 00:08:26 10° SW 00:28:32 73° SE 00:44:50 10° ENE visible
01 Jul - 02:26:47 10° WSW 02:45:03 50° NW 02:57:24 10° NE visible
01 Jul - 04:54:12 10° WNW 05:00:19 14° NW 05:05:18 10° N visible
01 Jul - 11:44:26 10° N 11:47:09 19° NE 11:50:09 10° E daylight
01 Jul - 13:54:45 10° W 13:58:38 34° SSW 14:04:22 10° SE daylight
01 Jul - 16:11:45 10° SSW 16:13:16 11° S 16:14:54 10° S daylight
01 Jul - 20:40:32 10° SSW 20:52:16 22° SSE 21:06:02 10° ESE visible
01 Jul - 22:53:07 10° SW 23:11:32 53° SE 23:29:08 10° ENE visible
02 Jul - 01:08:57 10° WSW 01:29:08 74° NW 01:44:07 10° NE visible
02 Jul - 03:31:18 10° W 03:45:00 27° NW 03:54:42 10° NNE visible
02 Jul - 12:41:42 10° NW 12:45:24 86° SW 12:50:21 10° SE daylight
02 Jul - 14:55:35 10° SW 14:58:22 14° SSW 15:01:49 10° SSE daylight
02 Jul - 19:27:49 10° S 19:34:43 14° SSE 19:42:53 10° SE visible
02 Jul - 21:38:47 10° SSW 21:54:20 37° SSE 22:11:34 10° E visible
02 Jul - 23:52:36 10° SW 00:12:34 81° SE 00:29:46 10° ENE visible
03 Jul - 02:11:15 10° WSW 02:29:21 45° NW 02:42:19 10° NNE visible
03 Jul - 04:40:01 10° NW 04:45:32 13° NNW 04:50:11 10° N visible
03 Jul - 11:29:22 10° NNW 11:32:36 28° NE 11:36:02 10° E daylight
03 Jul - 13:40:59 10° W 13:44:17 22° SSW 13:48:38 10° SSE daylight
03 Jul - 20:25:20 10° SSW 20:37:09 25° SSE 20:51:31 10° ESE visible
03 Jul - 22:37:27 10° SW 22:55:37 59° SE 23:14:05 10° ENE visible
04 Jul - 00:53:16 10° WSW 01:13:11 67° NW 01:28:57 10° NE visible
04 Jul - 03:16:20 10° W 03:29:43 25° NW 03:39:38 10° NNE visible
04 Jul - 10:19:10 10° NNE 10:19:21 10° NNE 10:19:32 10° NNE daylight
04 Jul - 12:27:22 10° WNW 12:30:57 53° SSW 12:35:21 10° SE daylight
04 Jul - 19:13:06 10° S 19:20:04 15° SSE 19:28:28 10° SE visible
04 Jul - 21:23:19 10° SSW 21:38:40 41° SE 21:56:38 10° E visible
04 Jul - 23:36:56 10° SW 23:56:30 89° SE 00:14:32 10° NE visible
05 Jul - 01:55:53 10° W 02:13:39 40° NW 02:27:08 10° NNE visible
05 Jul - 04:25:51 10° NW 04:30:51 12° NNW 04:35:10 10° N visible
05 Jul - 11:14:27 10° NW 11:18:06 43° NE 11:21:45 10° ESE daylight
05 Jul - 13:27:38 10° WSW 13:29:57 14° SSW 13:32:38 10° S daylight
05 Jul - 20:10:07 10° SSW 20:21:54 27° SSE 20:36:49 10° E visible
05 Jul - 22:21:54 10° SW 22:39:37 66° SE 22:58:50 10° ENE visible
06 Jul - 00:37:45 10° WSW 00:57:12 60° NW 01:13:38 10° NE visible
06 Jul - 03:01:33 10° WNW 03:14:31 23° NNW 03:24:32 10° NNE visible
06 Jul - 10:02:10 10° NNW 10:04:56 16° NNE 10:07:23 10° ENE daylight
06 Jul - 12:13:10 10° W 12:16:31 33° SSW 12:20:16 10° SSE daylight
06 Jul - 18:58:12 10° S 19:05:18 16° SSE 19:14:04 10° ESE visible
06 Jul - 21:07:57 10° SSW 21:22:54 46° SE 21:41:28 10° ENE visible
06 Jul - 23:21:26 10° WSW 23:40:24 83° NW 23:59:07 10° NE visible
07 Jul - 01:40:44 10° W 01:58:01 36° NW 02:11:52 10° NNE visible
07 Jul - 04:11:37 10° NW 04:16:15 12° NNW 04:20:19 10° N visible
07 Jul - 10:59:36 10° NW 11:03:39 73° NE 11:07:20 10° ESE daylight
07 Jul - 19:54:56 10° SSW 20:06:32 30° SE 20:21:56 10° E visible
07 Jul - 22:06:30 10° SW 22:23:34 73° SE 22:43:23 10° ENE visible
08 Jul - 00:22:27 10° WSW 00:41:15 53° NW 00:58:11 10° NE visible
08 Jul - 02:46:55 10° WNW 02:59:25 21° NNW 03:09:26 10° NNE visible
08 Jul - 09:46:30 10° NNW 09:50:33 25° NNE 09:53:47 10° E daylight
08 Jul - 11:59:09 10° W 12:02:04 21° SSW 12:05:04 10° SSE daylight
08 Jul - 18:43:13 10° S 18:50:27 17° SSE 18:59:38 10° ESE visible
08 Jul - 20:52:39 10° SW 21:07:05 51° SE 21:26:06 10° ENE visible
08 Jul - 23:06:06 10° WSW 23:24:19 75° NW 23:43:32 10° NE visible
09 Jul - 01:25:48 10° W 01:42:28 33° NNW 01:56:31 10° NNE visible
09 Jul - 03:57:07 10° NW 04:01:44 12° NNW 04:05:50 10° N visible
09 Jul - 08:33:43 10° N 08:36:44 14° NNE 08:39:14 10° NE daylight
09 Jul - 10:44:51 10° WNW 10:49:10 70° SW 10:52:49 10° SE daylight
09 Jul - 19:39:48 10° SSW 19:51:07 33° SE 20:06:51 10° E visible
09 Jul - 21:51:14 10° SW 22:07:32 81° SE 22:27:44 10° ENE visible
